{"data":{"norad_id":46076,"intl_designator":"2020-055BB","name":"STARLINK-1552","alt_names":[],"object_type":"PAYLOAD","status":"ACTIVE","operator":null,"country":"US","launch_date":"2020-08-07","launch_site_code":"AFETR","launch_vehicle":null,"mission":null,"orbit_class":"UNKNOWN","rcs_meters":null,"size_class":null,"mass_kg":null,"dimensions":null,"purposes":["comms"],"wikipedia_slug":null,"has_3d_model":false,"image_url":null,"decayed_at":null,"tle_current":{"epoch":"2026-09-20T01:36:29.596608Z","epoch_age_seconds":55645,"freshness":"FRESH","line1":"1 46076U 20055BB  26263.06700922  .00007669  00000+0  25889-3 0  9992","line2":"2 46076  53.1594 276.6854 0001476  71.6816 288.4346 15.31667476339003","mean_motion":15.31667476,"eccentricity":0.0001476,"inclination_deg":53.1594,"raan_deg":276.6854,"arg_perigee_deg":71.6816,"mean_anomaly_deg":288.4346,"bstar":0.00025889,"rev_number":33900,"period_min":94.015184272281,"perigee_km":469.82604073792,"apogee_km":471.84785784775,"semimajor_km":6848.9739492928,"source":"CELESTRAK","updated_at":"2026-09-20T09:00:38.465331Z"}}}